AirNav  
 
 841 users online  

02LA Louisiana State Police Troop G Heliport
Bossier City, Louisiana, USA

GOING TO BOSSIER CITY?


FAA INFORMATION EFFECTIVE 25 FEBRUARY 2021

Location

FAA Identifier: 02LA
Lat/Long: 32-31-53.3400N 093-39-35.7000W
32-31.889000N 093-39.595000W
32.5314833,-93.6599167
(estimated)
Elevation: 168 ft. / 51 m (estimated)
Variation: 05E (1985)
From city: 3 miles E of BOSSIER CITY, LA
Time zone: UTC -6 (UTC -5 during Daylight Saving Time)
Zip code: 71112

Heliport Operations

Heliport use: Private use. Permission required prior to landing
Control tower: no
ARTCC: FORT WORTH CENTER
FSS: DE RIDDER FLIGHT SERVICE STATION
Attendance: UNATNDD
Wind indicator: yes
Segmented circle: no

Heliport Communications

WX ASOS at DTN (4 nm W): 118.525 (318-425-7967)
WX ASOS at SHV (10 nm SW): 128.45 (318-636-5767)
WX AWOS-3PT at MNE (20 nm E): 119.325 (318-371-7874)

Nearby radio navigation aids

VOR radial/distance  VOR name  Freq  Var
EMGr330/8.5ELM GROVE VORTAC111.2007E
EICr145/16.3BELCHER VORTAC117.4007E

 
NDB name  Hdg/Dist  Freq  Var  ID
CARTHAGE053/38.533204ERPF .-. .--. ..-.

Heliport Services

Runway Information

Helipad H1

Dimensions: 20 x 20 ft. / 6 x 6 m
Surface: concrete
Latitude: 32-31.875667N
Longitude: 093-39.610667W
Traffic pattern: leftleft

Heliport Ownership and Management from official FAA records

Ownership: Publicly-owned
Owner: LA STATE POLICE
7919 INDEPENDENCE BLVD C-8
BATON ROUGE, LA 70806
Phone 225-922-0380
Manager: STEVEN M. LEE
7919 INDEPENDENCE BLVD C-8
BATON ROUGE, LA 70806
Phone (318) 613-0585
.

Additional Remarks

FOR CD CTC FORT WORTH ARTCC AT 817-858-7584.

Instrument Procedures

There are no published instrument procedures at 02LA.

Some nearby airports with instrument procedures:

KBAD - Barksdale Air Force Base (2 nm S)
KDTN - Shreveport Downtown Airport (4 nm W)
KSHV - Shreveport Regional Airport (10 nm SW)
KMNE - Minden Airport (20 nm E)
3F4 - Vivian Airport (27 nm NW)
 
Loc | Ops | Rwys | IFR | FBO | Links
Com | Nav | Svcs | Stats | Notes
Area around 02LA (Louisiana State Police Troop G Heliport)
 
Road maps at: MapQuest Bing Google
 
Aerial photo
No photo
 
Sectional chart

 
Airport distance calculator
Flying to Louisiana State Police Troop G Heliport? Find the distance to fly.

From to 02LA

Sunrise and sunset
Times for 01-Mar-2021
 Local
(UTC-6)
 Zulu
(UTC)
Morning civil twilight06:1912:19
Sunrise06:4312:43
Sunset18:1100:11
Evening civil twilight18:3500:35

Current date and time
Zulu (UTC)  01-Mar-2021 13:31:28
Local (UTC-6)  01-Mar-2021 07:31:28
 
METAR
KBAD 
2nm S 
011256Z 01010KT 10SM -RA OVC008 10/09 A3008 RMK AO2A SLPNO WND DATA ESTMD ALSTG ESTMD $
KDTN 
5nm W 
011253Z 01011KT 5SM RA OVC008 10/ A3011 RMK AO2 SLP195 P0010 T0100
KSHV 
10nm SW 
011256Z 02011KT 5SM RA BR BKN008 OVC011 10/09 A3010 RMK AO2 SLP192 P0009 T01060094
KMNE 
20nm E 
011255Z AUTO 03004KT 7SM RA OVC008 10/09 A3012 RMK AO2 P0006 T00970093
TAF
KBAD 
2nm S 
010556Z 0105/0208 36010G15KT 9000 -SHRA BKN003 QNH2992INS TEMPO 0105/0107 27025G35KT 6000 TSRAGR OVC009CB BECMG 0110/0111 35010KT 9999 VCSH OVC009 QNH3006INS BECMG 0114/0115 35015G20KT 8000 RA BR OVC005 QNH3015INS TX18/0105Z TN15/0207Z
KSHV 
10nm SW 
010310Z 0103/0124 24007KT P6SM VCTS BKN015 OVC090CB FM010400 34012KT 5SM TSRA BR OVC015CB TEMPO 0104/0107 VRB15G25KT 3SM TSRA BR BKN006 OVC020CB FM010800 36013KT 6SM -RA BR OVC010 FM011200 03013KT 4SM -RA BR OVC012
NOTAMs
Click for the latest NOTAMs
NOTAMs are issued by the DoD/FAA and will open in a separate window not controlled by AirNav.

 

 
 

Would you like to see your business listed on this page?

 If your business provides an interesting product or service to pilots, flight crews, aircraft, or users of the Louisiana State Police Troop G Heliport, you should consider listing it here.  To start the listing process, click on the button below
 
Add a business
 

Other Pages about Louisiana State Police Troop G Heliport

Update a link
 
Copyright © AirNav, LLC. All rights reserved. Privacy Policy  Contact